TimeHST,TemperatureF,Dew PointF,Humidity,Sea Level PressureIn,VisibilityMPH,Wind Direction,Wind SpeedMPH,Gust SpeedMPH,PrecipitationIn,Events,Conditions,WindDirDegrees,DateUTC
12:16 AM,33.8,26.6,75,29.85,10.0,Calm,Calm,-,N/A,,Overcast,0,2013-11-24 10:16:00
12:36 AM,35.6,24.8,65,29.85,10.0,NE,9.2,-,N/A,,Overcast,50,2013-11-24 10:36:00
12:56 AM,33.8,24.8,70,29.85,10.0,Calm,Calm,-,N/A,,Overcast,0,2013-11-24 10:56:00
1:16 AM,33.8,24.8,70,29.85,10.0,Calm,Calm,-,N/A,,Overcast,0,2013-11-24 11:16:00
1:36 AM,32.0,24.8,75,29.85,10.0,Calm,Calm,-,N/A,,Mostly Cloudy,0,2013-11-24 11:36:00
1:56 AM,30.2,23.0,75,29.85,10.0,Calm,Calm,-,N/A,,Mostly Cloudy,0,2013-11-24 11:56:00
2:16 AM,30.2,23.0,75,29.84,10.0,Calm,Calm,-,N/A,,Overcast,0,2013-11-24 12:16:00
2:36 AM,30.2,23.0,75,29.84,10.0,Calm,Calm,-,N/A,,Overcast,0,2013-11-24 12:36:00
2:56 AM,32.0,23.0,69,29.84,10.0,Calm,Calm,-,N/A,,Mostly Cloudy,0,2013-11-24 12:56:00
3:16 AM,28.4,21.2,74,29.84,10.0,Calm,Calm,-,N/A,,Clear,0,2013-11-24 13:16:00
3:36 AM,28.4,21.2,74,29.84,10.0,Calm,Calm,-,N/A,,Partly Cloudy,0,2013-11-24 13:36:00
3:56 AM,28.4,21.2,74,29.84,10.0,Calm,Calm,-,N/A,,Partly Cloudy,0,2013-11-24 13:56:00
4:16 AM,26.6,19.4,74,29.84,10.0,Calm,Calm,-,N/A,,Scattered Clouds,0,2013-11-24 14:16:00
4:36 AM,28.4,21.2,74,29.84,10.0,Calm,Calm,-,N/A,,Mostly Cloudy,0,2013-11-24 14:36:00
4:56 AM,30.2,21.2,69,29.84,10.0,Calm,Calm,-,N/A,,Overcast,0,2013-11-24 14:56:00
5:16 AM,28.4,21.2,74,29.84,10.0,Calm,Calm,-,N/A,,Overcast,0,2013-11-24 15:16:00
5:36 AM,28.4,21.2,74,29.83,10.0,Calm,Calm,-,N/A,,Mostly Cloudy,0,2013-11-24 15:36:00
5:56 AM,30.2,21.2,69,29.83,10.0,Calm,Calm,-,N/A,,Scattered Clouds,0,2013-11-24 15:56:00
6:16 AM,30.2,24.8,80,29.84,10.0,Calm,Calm,-,N/A,,Overcast,0,2013-11-24 16:16:00
6:36 AM,30.2,23.0,75,29.84,10.0,Calm,Calm,-,N/A,,Overcast,0,2013-11-24 16:36:00
6:56 AM,30.2,24.8,80,29.84,10.0,Calm,Calm,-,N/A,,Overcast,0,2013-11-24 16:56:00
7:16 AM,30.2,24.8,80,29.84,10.0,Calm,Calm,-,N/A,,Overcast,0,2013-11-24 17:16:00
7:36 AM,33.8,24.8,70,29.84,10.0,Calm,Calm,-,N/A,,Overcast,0,2013-11-24 17:36:00
7:56 AM,32.0,24.8,75,29.84,10.0,Calm,Calm,-,N/A,,Mostly Cloudy,0,2013-11-24 17:56:00
8:16 AM,30.2,24.8,80,29.85,10.0,Calm,Calm,-,N/A,,Mostly Cloudy,0,2013-11-24 18:16:00
8:36 AM,33.8,24.8,70,29.85,10.0,Calm,Calm,-,N/A,,Overcast,0,2013-11-24 18:36:00
8:56 AM,30.2,24.8,80,29.85,10.0,Calm,Calm,-,N/A,,Overcast,0,2013-11-24 18:56:00
9:16 AM,30.2,24.8,80,29.86,10.0,Calm,Calm,-,N/A,,Mostly Cloudy,0,2013-11-24 19:16:00
9:36 AM,28.4,23.0,80,29.86,10.0,Calm,Calm,-,N/A,,Mostly Cloudy,0,2013-11-24 19:36:00
9:56 AM,28.4,23.0,80,29.86,10.0,Calm,Calm,-,N/A,,Mostly Cloudy,0,2013-11-24 19:56:00
10:16 AM,32.0,24.8,75,29.87,10.0,Calm,Calm,-,N/A,,Scattered Clouds,0,2013-11-24 20:16:00
10:36 AM,30.2,23.0,75,29.86,10.0,Calm,Calm,-,N/A,,Mostly Cloudy,0,2013-11-24 20:36:00
10:56 AM,32.0,24.8,75,29.86,10.0,Calm,Calm,-,N/A,,Mostly Cloudy,0,2013-11-24 20:56:00
11:16 AM,33.8,24.8,70,29.86,10.0,Calm,Calm,-,N/A,,Clear,0,2013-11-24 21:16:00
11:36 AM,35.6,24.8,65,29.87,10.0,Calm,Calm,-,N/A,,Clear,0,2013-11-24 21:36:00
11:56 AM,37.4,24.8,60,29.87,10.0,Calm,Calm,-,N/A,,Mostly Cloudy,0,2013-11-24 21:56:00
12:16 PM,35.6,26.6,70,29.87,10.0,Calm,Calm,-,N/A,,Overcast,0,2013-11-24 22:16:00
12:36 PM,35.6,24.8,65,29.87,10.0,Calm,Calm,-,N/A,,Overcast,0,2013-11-24 22:36:00
12:56 PM,35.6,24.8,65,29.87,10.0,Calm,Calm,-,N/A,,Overcast,0,2013-11-24 22:56:00
1:16 PM,35.6,24.8,65,29.86,10.0,Calm,Calm,-,N/A,,Overcast,0,2013-11-24 23:16:00
1:36 PM,35.6,26.6,70,29.86,10.0,Calm,Calm,-,N/A,,Mostly Cloudy,0,2013-11-24 23:36:00
1:56 PM,35.6,24.8,65,29.86,10.0,Calm,Calm,-,N/A,,Partly Cloudy,0,2013-11-24 23:56:00
2:16 PM,35.6,24.8,65,29.86,10.0,Calm,Calm,-,N/A,,Mostly Cloudy,0,2013-11-25 00:16:00
2:36 PM,35.6,26.6,70,29.86,10.0,North,5.8,-,N/A,,Overcast,10,2013-11-25 00:36:00
2:56 PM,35.6,26.6,70,29.86,10.0,Calm,Calm,-,N/A,,Overcast,0,2013-11-25 00:56:00
3:16 PM,37.4,26.6,65,29.86,10.0,North,5.8,-,N/A,,Mostly Cloudy,360,2013-11-25 01:16:00
3:36 PM,37.4,24.8,60,29.86,10.0,North,3.5,-,N/A,,Mostly Cloudy,350,2013-11-25 01:36:00
3:56 PM,35.6,26.6,70,29.86,10.0,North,15.0,-,N/A,,Mostly Cloudy,10,2013-11-25 01:56:00
4:16 PM,33.8,26.6,75,29.87,10.0,North,5.8,-,N/A,,Mostly Cloudy,360,2013-11-25 02:16:00
4:36 PM,33.8,26.6,75,29.87,10.0,Calm,Calm,-,N/A,,Partly Cloudy,0,2013-11-25 02:36:00
4:56 PM,32.0,24.8,75,29.87,10.0,Calm,Calm,-,N/A,,Mostly Cloudy,0,2013-11-25 02:56:00
5:16 PM,33.8,24.8,70,29.87,10.0,Calm,Calm,-,N/A,,Overcast,0,2013-11-25 03:16:00
5:36 PM,33.8,23.0,65,29.87,10.0,Calm,Calm,-,N/A,,Overcast,0,2013-11-25 03:36:00
5:56 PM,32.0,23.0,69,29.88,10.0,Calm,Calm,-,N/A,,Mostly Cloudy,0,2013-11-25 03:56:00
6:16 PM,32.0,24.8,75,29.87,10.0,West,4.6,-,N/A,,Partly Cloudy,260,2013-11-25 04:16:00
6:36 PM,30.2,24.8,80,29.88,10.0,Calm,Calm,-,N/A,,Mostly Cloudy,0,2013-11-25 04:36:00
6:56 PM,28.4,23.0,80,29.88,10.0,Calm,Calm,-,N/A,,Mostly Cloudy,0,2013-11-25 04:56:00
7:16 PM,28.4,21.2,74,29.88,10.0,Calm,Calm,-,N/A,,Mostly Cloudy,0,2013-11-25 05:16:00
7:36 PM,30.2,21.2,69,29.88,10.0,Calm,Calm,-,N/A,,Mostly Cloudy,0,2013-11-25 05:36:00
7:56 PM,33.8,19.4,56,29.88,10.0,Calm,Calm,-,N/A,,Mostly Cloudy,0,2013-11-25 05:56:00
8:16 PM,33.8,19.4,56,29.88,10.0,WNW,3.5,-,N/A,,Mostly Cloudy,300,2013-11-25 06:16:00
8:36 PM,33.8,21.2,60,29.89,10.0,WNW,8.1,-,N/A,,Overcast,290,2013-11-25 06:36:00
8:56 PM,33.8,21.2,60,29.89,10.0,Calm,Calm,-,N/A,,Overcast,0,2013-11-25 06:56:00
9:16 PM,32.0,23.0,69,29.89,10.0,Calm,Calm,-,N/A,,Overcast,0,2013-11-25 07:16:00
9:36 PM,30.2,23.0,75,29.89,10.0,Calm,Calm,-,N/A,,Mostly Cloudy,0,2013-11-25 07:36:00
9:56 PM,32.0,24.8,75,29.89,10.0,West,5.8,-,N/A,,Overcast,260,2013-11-25 07:56:00
10:16 PM,32.0,26.6,80,29.89,10.0,Calm,Calm,-,N/A,,Overcast,0,2013-11-25 08:16:00
10:36 PM,30.2,26.6,86,29.90,10.0,WSW,5.8,-,N/A,,Overcast,250,2013-11-25 08:36:00
10:56 PM,30.2,24.8,80,29.90,10.0,Calm,Calm,-,N/A,,Mostly Cloudy,0,2013-11-25 08:56:00
11:16 PM,28.4,23.0,80,29.90,10.0,Calm,Calm,-,N/A,,Scattered Clouds,0,2013-11-25 09:16:00
11:36 PM,26.6,21.2,80,29.90,10.0,SW,4.6,-,N/A,,Partly Cloudy,220,2013-11-25 09:36:00
11:56 PM,26.6,21.2,80,29.90,10.0,Calm,Calm,-,N/A,,Clear,0,2013-11-25 09:56:00